Other Public Products
Issued by NWS Charleston, SC

Current Version | Previous Version | Text Only | Print | Product List | Glossary Off
Versions: 1 2 3 4 5 6 7 8 9 10 11 12 13 14 15 16 17 18 19 20 21 22 23 24 25 26 27 28 29 30 31 32 33 34 35 36 37 38 39 40 41 42 43 44 45 46 47 48 49 50

429
FPUS82 KCHS 180027
OPUCHS

TEST...KCHS/KSAV Gateway Observations...TEST
National Weather Service Charleston SC
700 PM EST FRI NOV 17 2017

NOTE: "fair" indicates few or no clouds below 12,000 feet with no
significant weather and/or obstructions to visibility.

SCZ050-WAZ558-NCZ071-TXZ119-213-PAZ071-DCZ001-FLZ074-172-MI076-
NYZ176-178-MAZ016-IL014-TNZ027-NJZ106-GAZ044-MD014-180100-

...Gateway Observations for Charleston International...

CITY           SKY/WX    TMP DP  RH WIND       PRES   REMARKS
Chas Airport   CLEAR     52  45  77 E7        30.16R
6HR MIN TEMP:  51; 6HR MAX TEMP:  66;

Seattle        CLOUDY    47  38  71 S14       30.20R
6HR MIN TEMP:  44; 6HR MAX TEMP:  50;

Charlotte      PTCLDY    54  31  41 S5        30.14R
6HR MIN TEMP:  52; 6HR MAX TEMP:  63;

Dallas DFW     PTCLDY    81  64  56 S23G31    29.71F
6HR MIN TEMP:  80; 6HR MAX TEMP:  85;

Dallas Love    MOCLDY    80  64  58 S16G24    29.74F
6HR MIN TEMP:  77; 6HR MAX TEMP:  82;

Philladelphia  PTCLDY    47  21  35 W7        30.13S
6HR MIN TEMP:  45; 6HR MAX TEMP:  51;

Wash National  PTCLDY    47  34  60 CALM      30.15F
6HR MIN TEMP:  45; 6HR MAX TEMP:  54;

Baltimore      PTCLDY    38  29  70 SW3       30.14S
6HR MIN TEMP:  38; 6HR MAX TEMP:  53;

Miami          PTCLDY    75  62  64 NE6       30.00R
6HR MIN TEMP:  69; 6HR MAX TEMP:  81;

Detroit        CLOUDY    42  34  73 SE8       29.93F
6HR MIN TEMP:  40; 6HR MAX TEMP:  42;

Newark         PTCLDY    42  15  33 W8        30.10S
6HR MIN TEMP:  42; 6HR MAX TEMP:  50;

Laguardia      PTCLDY    45  19  35 NW17      30.08R
6HR MIN TEMP:  45; 6HR MAX TEMP:  49;

J F K          PTCLDY    43  16  33 NW13      30.09R
6HR MIN TEMP:  42; 6HR MAX TEMP:  48;

Boston Logan   CLEAR     39  16  39 W14       29.98R WCI  31
6HR MIN TEMP:  39; 6HR MAX TEMP:  44;

Ft. Lauderdale PTCLDY    74  61  63 NE8       29.99S
6HR MIN TEMP:  73; 6HR MAX TEMP:  80;

Chicago O`Hare CLOUDY    42  39  89 S16       29.67F FOG
6HR MIN TEMP:  40; 6HR MAX TEMP:  45; 6HR PCP:  0.03;

Chicago Midway LGT RAIN  43  41  93 S12G18    29.69F
6HR MIN TEMP:  42; 6HR MAX TEMP:  46; 6HR PCP:  0.36;

Houston Bush   CLOUDY    79  65  62 S12       29.89F
6HR MIN TEMP:  79; 6HR MAX TEMP:  86;

Houston Hobby  MOCLDY    76  67  73 S9        29.91F
6HR MIN TEMP:  76; 6HR MAX TEMP:  85;

Nashville      CLOUDY    60  34  37 S7        29.96F
6HR MIN TEMP:  57; 6HR MAX TEMP:  66;

Atlanta        CLEAR     58  44  60 SE5       30.09S
6HR MIN TEMP:  58; 6HR MAX TEMP:  66;


$$

GAZ044-118-TXZ119-213-NCZ071-DCZ001-MDZ014-506-PAZ021-071-NJZ106-
NYZ176-178-MAZ106-OHZ011-021-055-MIZ076-KYZ091-ILZ014-INZ047-
MNZ060-ONZ431-180100-

...Gateway Observations for Savannah International...

CITY           SKY/WX    TMP DP  RH WIND       PRES   REMARKS
Savannah Arpt  PTCLDY    56  48  74 E7        30.14F
6HR MIN TEMP:  55; 6HR MAX TEMP:  69;

Atlanta        CLEAR     58  44  60 SE5       30.09S
6HR MIN TEMP:  58; 6HR MAX TEMP:  66;

Charlotte      PTCLDY    54  31  41 S5        30.14R
6HR MIN TEMP:  52; 6HR MAX TEMP:  63;

Dallas DFW     PTCLDY    81  64  56 S23G31    29.71F
6HR MIN TEMP:  80; 6HR MAX TEMP:  85;

Houston Bush   CLOUDY    79  65  62 S12       29.89F
6HR MIN TEMP:  79; 6HR MAX TEMP:  86;

Wash National  PTCLDY    47  34  60 CALM      30.15F
6HR MIN TEMP:  45; 6HR MAX TEMP:  54;

Wash Dulles    PTCLDY    37  31  78 CALM      30.14F
6HR MIN TEMP:  36; 6HR MAX TEMP:  53;

Baltimore      PTCLDY    38  29  70 SW3       30.14S
6HR MIN TEMP:  38; 6HR MAX TEMP:  53;

Philadelphia   PTCLDY    47  21  35 W7        30.13S
6HR MIN TEMP:  45; 6HR MAX TEMP:  51;

Newark         PTCLDY    42  15  33 W8        30.10S
6HR MIN TEMP:  42; 6HR MAX TEMP:  50;

Laguardia      PTCLDY    45  19  35 NW17      30.08R
6HR MIN TEMP:  45; 6HR MAX TEMP:  49;

J F K          PTCLDY    43  16  33 NW13      30.09R
6HR MIN TEMP:  42; 6HR MAX TEMP:  48;

Boston         CLEAR     39  16  39 W14       29.98R WCI  31
6HR MIN TEMP:  39; 6HR MAX TEMP:  44;

Pittsburg      CLOUDY    39  28  64 SE5       30.03F WCI  36
6HR MIN TEMP:  38; 6HR MAX TEMP:  43;

Akron          CLOUDY    41  28  60 S10       30.01F
6HR MIN TEMP:  41; 6HR MAX TEMP:  44;

Cleveland      MOCLDY    43  30  60 SE15      30.00F
6HR MIN TEMP:  42; 6HR MAX TEMP:  47;

Cincinnati     CLOUDY    43  36  76 S7        29.96F
6HR MIN TEMP:  42; 6HR MAX TEMP:  50;

Columbus       PTCLDY    40  32  71 SE3       29.99F
Detroit        CLOUDY    42  34  73 SE8       29.93F
6HR MIN TEMP:  40; 6HR MAX TEMP:  42;

Chicago O`Hare CLOUDY    42  39  89 S16       29.67F FOG
6HR MIN TEMP:  40; 6HR MAX TEMP:  45; 6HR PCP:  0.03;

Minneapolis    CLOUDY    38  38 100 N5        29.65R FOG     WCI  34
6HR MIN TEMP:  37; 6HR MAX TEMP:  38; 6HR PCP:  0.04;

Indianapolis   CLOUDY    46  33  60 SE16      29.85F
6HR MIN TEMP:  42; 6HR MAX TEMP:  48;

Toronto Canada MOCLDY    34  27  75 SE6       30.02F WCI  29

$$




USA.gov is the U.S. government's official web portal to all federal, state and local government web resources and services.